Weather in Bhagalpur

India     25°14′49″N   86°59′04″E
temp.,
°C
wind,
m/s
gust,
m/s
humid.,
%
clouds,
%
prec.,
mm/h
press.,
hPa
HPBL,
m
18 may, tue
tue1823:30+33ese484328 0.0 1003276
02:30+32ene364523 0.0 1002158
05:30+31e234883 0.0 100380
08:30+36n3336100 0.0 1005821
11:30+39nnw442677 0.0 10042611
14:30+38nnw652861 0.0 10021817
17:30+34n883787 0.0 1002810
20:30+33n374299 0.0 1003426
19 may, wed
wed1923:30+32s224545 0.1 100467
02:30+31s3646100 0.3 1002292
05:30+31wsw354992 0.3 1003234
08:30+36wnw443628 0.0 10041302
11:30+39wnw6729100 0.0 10032419
14:30+40wnw7728100 0.1 10003259
17:30+39wnw572850 0.2 9981605
20:30+34sw444314 0.0 1003497
20 may, thu
thu2023:30+33wsw344981 0.0 1002127
02:30+29wnw245833 1.9 100298
05:30+28w356528 6.6 1004163
08:30+34wnw44416 0.5 1005775
11:30+37wsw12335 1.1 10031500
14:30+40sw44295 0.0 10002241
17:30+39sw34306 0.0 9991482
20:30+32ssw6105111 0.0 1002279
21 may, fri
fri2123:30+32w254780 0.1 1002365
02:30+30nnw225894 1.3 1002107
05:30+30n346071 1.3 1002300
08:30+34e32475 0.0 10041061
11:30+38se22365 0.0 10021826
14:30+40sw142927 0.0 9993063
17:30+34ene564999 1.6 998169
20:30+33ene455131 0.3 999281
22 may, sat
sat2223:30+31se4859100 0.3 1000341
02:30+31e2261100 0.1 1000236
05:30+30ene22665 0.3 1001176
08:30+34ne325149 0.0 1002900
11:30+38ne223915 0.0 10002247
14:30+38nw453641 0.1 9971330
17:30+31ese81059100 0.3 999537
20:30+30e5850100 0.0 1001361